This demonstration page uses our WeatherBlox Daily Observations layout. Learn more.

Left ArrowRight Arrow

41.86663, -103.66717

Hourly Observations for January 6, 2016

Temp ( °F °C ) Dew Point ( °F °C ) Humidity (%) Winds ( mph kmh ) Pressure ( in mb ) Visibility ( mi km ) Precip ( " mm )
12:53 am 00:53 Clear with Mist and Fog 14 -10 11 -11.7 88 88 NW 9 15 29.91 1013 4 6 N/A
1:53 am 01:53 Clear with Mist and Fog 12 -11.1 9 -12.8 87 87 WNW 7 11 29.92 1013 4 6 N/A
2:53 am 02:53 Clear with Mist and Fog 15 -9.4 12 -11.1 88 88 NW 9 15 29.91 1013 4 6 N/A
3:53 am 03:53 Clear with Mist and Fog 16 -8.9 12 -11.1 84 84 NNW 9 15 29.91 1013 4 6 N/A
4:53 am 04:53 Clear with Mist and Fog 14 -10 10 -12.2 84 84 WNW 10 17 29.93 1014 4 6 N/A
5:53 am 05:53 Clear with Mist and Fog 16 -8.9 12 -11.1 84 84 NNW 8 13 29.95 1014 5 8 N/A
6:53 am 06:53 Clear with Mist and Fog 12 -11.1 10 -12.2 92 92 NW 3 6 29.97 1015 5 8 N/A
7:53 am 07:53 Sunny with Mist and Fog 13 -10.6 10 -12.2 88 88 W 6 9 29.96 1015 3 5 N/A
8:53 am 08:53 Hazy 17 -8.3 12 -11.1 80 80 N N/A 29.97 1015 4 6 N/A
9:53 am 09:53 Hazy 21 -6.1 16 -8.9 81 81 NNW 6 9 29.95 1014 5 8 N/A
10:53 am 10:53 Sunny 29 -1.7 20 -6.7 69 69 NNW 5 7 29.91 1013 N/A N/A
11:53 am 11:53 Sunny 34 1.1 23 -5 64 64 undefined N/A 29.87 1012 10 16 N/A
12:53 pm 12:53 Sunny 37 2.8 24 -4.4 59 59 N N/A 29.84 1010 10 16 N/A
1:53 pm 13:53 Sunny 41 5 25 -3.9 53 53 N N/A 29.81 1010 10 16 N/A
2:53 pm 14:53 Sunny 39 3.9 26 -3.3 60 60 ESE 3 6 29.81 1010 10 16 N/A
3:53 pm 15:53 Sunny 34 1.1 25 -3.9 70 70 SSE 3 6 29.83 1010 8 13 N/A
4:53 pm 16:53 Clear 28 -2.2 22 -5.6 78 78 E 5 7 29.86 1011 9 14 N/A
5:53 pm 17:53 Clear 25 -3.9 21 -6.1 85 85 ENE 6 9 29.87 1012 9 14 N/A
6:53 pm 18:53 Clear 24 -4.4 20 -6.7 84 84 NE 5 7 29.90 1012 8 13 N/A
7:53 pm 19:53 Clear 22 -5.6 18 -7.8 85 85 NE 5 7 29.90 1012 8 13 N/A
8:53 pm 20:53 Clear 24 -4.4 18 -7.8 77 77 N N/A 29.88 1012 8 13 N/A
9:53 pm 21:53 Clear 17 -8.3 13 -10.6 84 84 NNE 5 7 29.89 1012 8 13 N/A
10:53 pm 22:53 Clear 16 -8.9 13 -10.6 88 88 NNW 5 7 29.87 1012 8 13 N/A
11:53 pm 23:53 Clear 14 -10 13 -10.6 95 95 NNW 3 6 29.86 1011 7 11 N/A

Powered by AerisWeather